Dunkirk, NY

3:42 PM EST on February 19, 2018 (GMT -0500)
Chautauqua County-Dunkirk

Weather History for KDKK - November, 2012

Change the Weather History Date:

Wednesday, November 28, 2012

  Actual Average Record
Temperature  
Mean Temperature 34 °F -  
Max Temperature 37 °F 46 °F 71 °F (1990)
Min Temperature 30 °F 33 °F 10 °F (1930)
Degree Days  
Heating Degree Days 32    
Moisture  
Dew Point 23 °F    
Average Humidity 64    
Maximum Humidity 72    
Minimum Humidity 54    
Precipitation  
Precipitation 0.00 in - - ()
Sea Level Pressure  
Sea Level Pressure 30.24 in    
Wind  
Wind Speed 11 mph (SW)    
Max Wind Speed 18 mph    
Max Gust Speed 26 mph    
Visibility 9 miles    
Events Snow    
Averages and records for this station are not official NWS values.
T = Trace of Precipitation, MM = Missing Value Source: NWS Daily Summary

Daily Weather History Graph

Daily Weather History Graph

Search for Another Location

Airport or City:

Trip Planner

Search our weather history database for the weather conditions in past years. The results will help you decide how hot, cold, wet, or windy it might be!

Date:

Astronomy

Nov. 28, 2012 Rise Set
Actual Time 7:24 AM EST 4:45 PM EST
Civil Twilight 6:52 AM EST 5:17 PM EST
Nautical Twilight 6:18 AM EST 5:52 PM EST
Astronomical Twilight 5:44 AM EST 6:25 PM EST
Moon 4:59 PM EST (11/28) 7:20 AM EST (11/28)
Length of Visible Light 10h 24m
Length of Day
9h 21m
Full, 100% of the Moon is Illuminated
Nov 28
Full
Dec 6
Last Quarter
Dec 13
New
Dec 20
First Quarter
Dec 28
Full

Hourly Weather History & Observations

Time (EST) Temp. Windchill Dew Point Humidity Pressure Visibility Wind Dir Wind Speed Gust Speed Precip Events Conditions
12:06 AM 33.8 °F 27.7 °F 24.8 °F 70% 30.24 in 10.0 mi SW 6.9 mph - N/A   Overcast
12:32 AM 33.8 °F 25.3 °F 24.8 °F 70% 30.23 in 10.0 mi SW 11.5 mph - N/A   Overcast
12:53 AM 34.0 °F 26.6 °F 23.0 °F 64% 30.25 in 10.0 mi SW 9.2 mph - N/A   Overcast
1:53 AM 33.1 °F 25.5 °F 24.1 °F 70% 30.26 in 10.0 mi SW 9.2 mph - N/A   Overcast
2:53 AM 30.9 °F 24.3 °F 19.9 °F 64% 30.26 in 10.0 mi SW 6.9 mph - N/A   Clear
3:53 AM 30.9 °F 22.8 °F 19.9 °F 64% 30.23 in 10.0 mi SSW 9.2 mph - N/A   Mostly Cloudy
4:53 AM 32.0 °F 24.2 °F 19.9 °F 61% 30.23 in 10.0 mi SSW 9.2 mph - N/A   Overcast
5:53 AM 32.0 °F 22.1 °F 19.9 °F 61% 30.22 in 10.0 mi SSW 13.8 mph - N/A   Overcast
6:53 AM 32.0 °F 23.6 °F 21.0 °F 64% 30.22 in 10.0 mi South 10.4 mph - N/A   Overcast
7:53 AM 32.0 °F 23.6 °F 21.0 °F 64% 30.22 in 10.0 mi South 10.4 mph - N/A   Overcast
8:53 AM 32.0 °F 24.2 °F 23.0 °F 69% 30.23 in 3.0 mi SSW 9.2 mph - 0.00 in Snow Light Snow
9:27 AM 33.8 °F 25.8 °F 23.0 °F 65% 30.20 in 2.5 mi SSW 10.4 mph - 0.00 in Snow Light Snow
9:38 AM 33.8 °F 23.9 °F 24.8 °F 70% 30.20 in 1.5 mi SSW 15.0 mph 20.7 mph 0.00 in Snow Light Snow
9:47 AM 33.8 °F 24.8 °F 24.8 °F 70% 30.20 in 3.0 mi SW 12.7 mph - 0.00 in Snow Light Snow
9:53 AM 33.1 °F 24.4 °F 24.1 °F 70% 30.22 in 5.0 mi SW 11.5 mph 18.4 mph 0.00 in Snow Light Snow
10:08 AM 33.8 °F 24.3 °F 24.8 °F 70% 30.20 in 9.0 mi SW 13.8 mph - 0.00 in   Overcast
10:53 AM 35.1 °F 24.8 °F 23.0 °F 61% 30.23 in 10.0 mi SW 17.3 mph 24.2 mph 0.00 in   Overcast
11:34 AM 33.8 °F 22.8 °F 24.8 °F 70% 30.20 in 5.0 mi SW 18.4 mph 23.0 mph 0.00 in Snow Light Snow
11:53 AM 35.1 °F 25.9 °F 25.0 °F 67% 30.22 in 7.0 mi SW 13.8 mph 21.9 mph 0.00 in Snow Light Snow
12:53 PM 35.1 °F 25.9 °F 27.0 °F 72% 30.22 in 10.0 mi SW 13.8 mph 20.7 mph 0.00 in   Overcast
1:30 PM 35.6 °F 27.1 °F 26.6 °F 70% 30.20 in 10.0 mi SW 12.7 mph 21.9 mph N/A   Overcast
1:37 PM 35.6 °F 27.1 °F 26.6 °F 70% 30.20 in 10.0 mi SW 12.7 mph - N/A   Overcast
1:53 PM 36.0 °F 25.6 °F 26.1 °F 67% 30.22 in 10.0 mi WSW 18.4 mph 25.3 mph N/A   Overcast
2:53 PM 36.0 °F 28.5 °F 24.1 °F 62% 30.23 in 10.0 mi West 10.4 mph 21.9 mph N/A   Overcast
3:53 PM 36.0 °F 28.0 °F 21.9 °F 57% 30.25 in 10.0 mi West 11.5 mph 20.7 mph N/A   Overcast
4:53 PM 36.0 °F 29.0 °F 24.1 °F 62% 30.26 in 10.0 mi West 9.2 mph 23.0 mph N/A   Overcast
5:53 PM 37.0 °F 31.0 °F 25.0 °F 62% 30.26 in 10.0 mi WSW 8.1 mph - N/A   Overcast
6:53 PM 37.0 °F 28.1 °F 23.0 °F 57% 30.28 in 10.0 mi West 15.0 mph 24.2 mph N/A   Overcast
7:53 PM 36.0 °F 26.7 °F 21.9 °F 57% 30.28 in 10.0 mi WNW 15.0 mph 23.0 mph N/A   Mostly Cloudy
8:53 PM 36.0 °F 27.1 °F 21.0 °F 55% 30.28 in 10.0 mi WNW 13.8 mph 26.5 mph N/A   Mostly Cloudy
9:53 PM 37.0 °F 27.7 °F 21.9 °F 54% 30.28 in 10.0 mi WNW 16.1 mph 24.2 mph N/A   Scattered Clouds
10:53 PM 37.0 °F 28.1 °F 23.0 °F 57% 30.27 in 10.0 mi West 15.0 mph 23.0 mph N/A   Mostly Cloudy
11:53 PM 37.9 °F 29.6 °F 25.0 °F 60% 30.28 in 10.0 mi West 13.8 mph 23.0 mph N/A   Overcast